Location: Bastelaar
(51.0950°N, 3.8602°E)
Time: 19:31:29
(UTC+00:00)

BlueWalker 3 - Pass Details

Date: 23 January 2026
Orbit: 450 x 461 km, 53.2° (Epoch: 11 February)

Event Time Altitude Azimuth Distance (km) Brightness Sun altitude
Rises 19:23:01 0° 252° (WSW) 2,453 6.5 -28.4°
Reaches altitude 10° 19:25:09 10° 252° (WSW) 1,581 5.3 -28.7°
Enters shadow 19:26:21 20° 253° (WSW) 1,101 4.3 -28.9°
